Hourly Data Report for December 09, 2018

TORONTO CITY
ONTARIO
Current Station Operator: ECCC - MSC

43°40'00.000" N
79°24'00.000" W
112.50 m
6158355
71508
XTO

Download Data

Hourly Data (December 2018)
Hourly Data Report for December 9, 2018
TIME
LST
Temp Definition
°C
Dew Point Definition
°C
Rel Hum Definition
%
Precip. Amount Definition
mm

Wind Dir Definition
10's deg

Wind Spd Definition
km/h
Visibility Definition
km
Stn Press Definition
kPa
Hmdx Definition


Wind Chill Definition


Weather Definition


00:00 -1.4 -7.1 65 0.0 LegendMM LegendMM   101.82     LegendNANA
01:00 -1.6 -6.5 69 0.0 LegendMM LegendMM   101.80     LegendNANA
02:00 -1.8 -7.6 65 0.0 LegendMM LegendMM   101.75     LegendNANA
03:00 -2.2 -8.4 62 0.0 LegendMM LegendMM   101.71     LegendNANA
04:00 -2.4 -8.7 62 0.0 LegendMM LegendMM   101.62     LegendNANA
05:00 -3.3 -9.6 62 0.0 LegendMM LegendMM   101.56     LegendNANA
06:00 -3.5 -9.4 63 0.0 LegendMM LegendMM   101.49     LegendNANA
07:00 -4.0 -9.6 65 0.0 LegendMM LegendMM   101.47     LegendNANA
08:00 -4.4 -9.3 68 0.0 LegendMM LegendMM   101.43     LegendNANA
09:00 -3.4 -9.1 64 0.0 LegendMM LegendMM   101.40     LegendNANA
10:00 -2.2 -8.9 60 0.0 LegendMM LegendMM   101.35     LegendNANA
11:00 -0.6 -8.2 56 0.0 LegendMM LegendMM   101.23     LegendNANA
12:00 0.3 -7.6 56 0.0 LegendMM LegendMM   101.13     LegendNANA
13:00 0.7 -8.3 51 0.0 LegendMM LegendMM   100.99     LegendNANA
14:00 0.9 -7.9 52 0.0 LegendMM LegendMM   100.94     LegendNANA
15:00 0.6 -8.6 50 0.0 LegendMM LegendMM   100.95     LegendNANA
16:00 0.3 -7.2 57 0.0 LegendMM LegendMM   100.98     LegendNANA
17:00 -0.8 -6.8 64 0.0 LegendMM LegendMM   100.97     LegendNANA
18:00 -0.7 -6.8 63 0.0 LegendMM LegendMM   100.99     LegendNANA
19:00 -0.8 -6.5 65 0.0 LegendMM LegendMM   101.01     LegendNANA
20:00 -0.7 -5.9 68 0.0 LegendMM LegendMM   100.99     LegendNANA
21:00 -0.6 -5.7 68 0.0 LegendMM LegendMM   100.94     LegendNANA
22:00 -0.3 -5.5 68 0.0 LegendMM LegendMM   100.92     LegendNANA
23:00 0.0 -5.4 67 0.0 LegendMM LegendMM   100.89     LegendNANA

Notes on Data Quality.

Legend

  • E = Estimated
  • M = Missing
  • NA = Not Available*
  • [empty] = Indicates an unobserved value
Date modified: